Location: Newark
(11.2914°S, 14.4718°E)
Time: 23:54:08
(UTC+00:00)

Vanguard 2 - Pass Details

Date: 20 September 2019
Orbit: 554 x 2937 km, 32.9° (Epoch: 15 October)

Event Time Altitude Azimuth Distance (km) Brightness Sun altitude
Rises 22:34:15 0° 247° (WSW) 6,437 12.4 -78.4°
Reaches altitude 10° 22:38:29 10° 251° (WSW) 5,591 11.9 -78.8°
Enters shadow 22:38:53 11° 252° (WSW) 5,513 11.9 -78.8°
